When you browse on this site, cookies collect data to enhance your experience and personalize the content and advertising you see.
Visit our Privacy Policy to learn more. By continuing to use the site, you agree to this use of cookies and data.
  • In Hungary
  • List of Countries
  • For 7 days
  • Water Temperature
  • Satellite Maps
  • Weather Map
  • News
  • Weather Widgets
  • user-avatar
    Login

    Hourly Weather Delicias

    Today, 27 June, Thursday

    Time Temperature Precipitation Wind Pressure Humidity
    00:00 +27°C° 0 mm 6 mps 745 mmHg 44%
    01:00 +26°C° 0 mm 5 mps 745 mmHg 47%
    02:00 +25°C° 0 mm 4 mps 745 mmHg 49%
    03:00 +25°C° 0 mm 3 mps 745 mmHg 52%
    04:00 +25°C° 0 mm 3 mps 745 mmHg 51%
    05:00 +25°C° 0 mm 3 mps 745 mmHg 51%
    06:00 +26°C° 0 mm 2 mps 745 mmHg 50%
    07:00 +28°C° 0 mm 3 mps 745 mmHg 43%
    08:00 +30°C° 0 mm 5 mps 745 mmHg 36%
    09:00 +34°C° 0 mm 6 mps 745 mmHg 29%
    10:00 +36°C° 0 mm 7 mps 745 mmHg 25%
    11:00 +39°C° 0 mm 7 mps 745 mmHg 21%
    12:00 +41°C° 0 mm 8 mps 745 mmHg 16%
    13:00 +44°C° 0 mm 9 mps 744 mmHg 14%
    14:00 +45°C° 0 mm 10 mps 744 mmHg 12%
    15:00 +47°C° 0 mm 10 mps 744 mmHg 10%
    16:00 +45°C° 0 mm 10 mps 743 mmHg 12%
    17:00 +44°C° 0 mm 9 mps 743 mmHg 13%
    18:00 +43°C° 0 mm 8 mps 743 mmHg 14%
    19:00 +39°C° 0 mm 7 mps 744 mmHg 18%
    20:00 +36°C° 0 mm 5 mps 744 mmHg 22%
    21:00 +33°C° 0 mm 3 mps 744 mmHg 26%
    22:00 +31°C° 0 mm 3 mps 744 mmHg 29%
    23:00 +29°C° 0 mm 3 mps 744 mmHg 31%

    Tomorrow, 28 June, Friday

    Time Temperature Precipitation Wind Pressure Humidity
    00:00 +28°C° 0 mm 3 mps 744 mmHg 34%
    01:00 +27°C° 0 mm 2 mps 744 mmHg 36%
    02:00 +26°C° 0 mm 2 mps 744 mmHg 39%
    03:00 +25°C° 0 mm 1 mps 743 mmHg 41%
    04:00 +26°C° 0 mm 1 mps 743 mmHg 42%
    05:00 +25°C° 0 mm 0 mps 744 mmHg 42%
    06:00 +26°C° 0 mm 0 mps 744 mmHg 42%
    07:00 +28°C° 0 mm 0 mps 744 mmHg 36%
    08:00 +32°C° 0 mm 1 mps 744 mmHg 30%
    09:00 +34°C° 0 mm 1 mps 744 mmHg 24%
    10:00 +36°C° 0 mm 1 mps 743 mmHg 21%
    11:00 +39°C° 0 mm 1 mps 743 mmHg 17%
    12:00 +41°C° 0 mm 2 mps 743 mmHg 14%
    13:00 +42°C° 0 mm 2 mps 743 mmHg 13%
    14:00 +44°C° 0 mm 3 mps 742 mmHg 11%
    15:00 +45°C° 0 mm 3 mps 742 mmHg 10%
    16:00 +44°C° 0 mm 3 mps 742 mmHg 10%
    17:00 +44°C° 0 mm 3 mps 742 mmHg 10%
    18:00 +44°C° 0 mm 3 mps 742 mmHg 10%
    19:00 +40°C° 0 mm 3 mps 742 mmHg 11%
    20:00 +38°C° 0 mm 3 mps 742 mmHg 12%
    21:00 +36°C° 0 mm 4 mps 743 mmHg 13%
    22:00 +34°C° 0 mm 3 mps 743 mmHg 14%
    23:00 +32°C° 0 mm 2 mps 742 mmHg 15%

    Day after tomorrow, 29 June, Saturday

    Time Temperature Precipitation Wind Pressure Humidity
    00:00 +31°C° 0 mm 2 mps 742 mmHg 17%
    01:00 +30°C° 0 mm 1 mps 742 mmHg 19%
    02:00 +29°C° 0 mm 1 mps 742 mmHg 21%
    03:00 +28°C° 0 mm 1 mps 742 mmHg 23%
    04:00 +29°C° 0 mm 1 mps 742 mmHg 24%
    05:00 +29°C° 0 mm 1 mps 742 mmHg 26%
    06:00 +30°C° 0 mm 1 mps 742 mmHg 27%
    07:00 +32°C° 0 mm 1 mps 742 mmHg 23%
    08:00 +34°C° 0 mm 1 mps 742 mmHg 19%
    09:00 +37°C° 0 mm 1 mps 742 mmHg 15%
    10:00 +39°C° 0 mm 1 mps 742 mmHg 13%
    11:00 +41°C° 0 mm 2 mps 742 mmHg 11%
    12:00 +42°C° 0 mm 2 mps 742 mmHg 10%
    13:00 +44°C° 0 mm 3 mps 741 mmHg 9%
    14:00 +45°C° 0 mm 3 mps 741 mmHg 8%
    15:00 +46°C° 0 mm 3 mps 741 mmHg 7%
    16:00 +45°C° 0 mm 4 mps 741 mmHg 7%
    17:00 +45°C° 0 mm 4 mps 741 mmHg 8%
    18:00 +45°C° 0 mm 5 mps 741 mmHg 9%
    19:00 +42°C° 0 mm 5 mps 741 mmHg 11%
    20:00 +40°C° 0 mm 5 mps 742 mmHg 13%
    21:00 +36°C° 0 mm 5 mps 743 mmHg 15%
    22:00 +34°C° 0 mm 4 mps 743 mmHg 24%
    23:00 +30°C° 0 mm 4 mps 743 mmHg 32%

    30 June, Sunday

    Time Temperature Precipitation Wind Pressure Humidity
    00:00 +28°C° 0 mm 4 mps 743 mmHg 41%
    01:00 +27°C° 0 mm 3 mps 743 mmHg 47%
    02:00 +26°C° 0 mm 2 mps 743 mmHg 53%
    03:00 +24°C° 0 mm 2 mps 743 mmHg 59%
    04:00 +24°C° 0 mm 2 mps 743 mmHg 60%
    05:00 +24°C° 0 mm 2 mps 743 mmHg 60%
    06:00 +24°C° 0 mm 2 mps 743 mmHg 61%
    07:00 +26°C° 0 mm 2 mps 743 mmHg 53%
    08:00 +28°C° 0 mm 1 mps 743 mmHg 46%
    09:00 +30°C° 0 mm 1 mps 744 mmHg 38%
    10:00 +34°C° 0 mm 2 mps 743 mmHg 31%
    11:00 +37°C° 0 mm 2 mps 743 mmHg 25%
    12:00 +40°C° 0 mm 3 mps 743 mmHg 18%
    13:00 +42°C° 0 mm 3 mps 742 mmHg 16%
    14:00 +44°C° 0 mm 4 mps 742 mmHg 14%
    15:00 +46°C° 0 mm 5 mps 742 mmHg 12%
    16:00 +45°C° 0 mm 6 mps 742 mmHg 13%
    17:00 +45°C° 0 mm 7 mps 742 mmHg 14%
    18:00 +44°C° 0 mm 8 mps 742 mmHg 16%
    19:00 +41°C° 0 mm 7 mps 742 mmHg 19%
    20:00 +38°C° 0 mm 6 mps 743 mmHg 22%
    21:00 +35°C° 0 mm 4 mps 743 mmHg 26%
    22:00 +33°C° 0 mm 3 mps 743 mmHg 34%
    23:00 +29°C° 0 mm 3 mps 743 mmHg 42%

    1 July, Monday

    Time Temperature Precipitation Wind Pressure Humidity
    00:00 +27°C° 0 mm 2 mps 743 mmHg 50%
    01:00 +27°C° 0 mm 2 mps 743 mmHg 53%
    02:00 +26°C° 0 mm 2 mps 743 mmHg 56%
    03:00 +25°C° 0 mm 2 mps 743 mmHg 59%
    04:00 +25°C° 0 mm 3 mps 743 mmHg 63%
    05:00 +24°C° 0 mm 3 mps 743 mmHg 66%
    06:00 +22°C° 0 mm 3 mps 743 mmHg 69%
    07:00 +25°C° 0 mm 3 mps 743 mmHg 63%
    08:00 +27°C° 0 mm 3 mps 743 mmHg 56%
    09:00 +28°C° 0 mm 3 mps 743 mmHg 50%
    10:00 +30°C° 0 mm 3 mps 743 mmHg 44%
    11:00 +32°C° 0 mm 2 mps 743 mmHg 38%
    12:00 +35°C° 0 mm 2 mps 743 mmHg 32%
    13:00 +37°C° 0 mm 2 mps 742 mmHg 29%
    14:00 +38°C° 0 mm 2 mps 742 mmHg 26%
    15:00 +39°C° 0 mm 2 mps 742 mmHg 23%
    16:00 +37°C° 0 mm 4 mps 742 mmHg 30%
    17:00 +35°C° 0 mm 6 mps 742 mmHg 36%
    18:00 +32°C° 0 mm 8 mps 742 mmHg 43%
    19:00 +29°C° 0.3 mm 8 mps 742 mmHg 50%
    20:00 +27°C° 0.3 mm 7 mps 743 mmHg 57%
    21:00 +24°C° 0.3 mm 6 mps 744 mmHg 64%
    22:00 +23°C° 0.1 mm 6 mps 743 mmHg 67%
    23:00 +22°C° 0.1 mm 6 mps 743 mmHg 70%

    2 July, Tuesday

    Time Temperature Precipitation Wind Pressure Humidity
    00:00 +21°C° 0.1 mm 6 mps 743 mmHg 74%
    01:00 +21°C° 0.1 mm 6 mps 743 mmHg 75%
    02:00 +20°C° 0.1 mm 5 mps 743 mmHg 76%
    03:00 +20°C° 0.1 mm 5 mps 743 mmHg 78%
    04:00 +20°C° 0 mm 5 mps 743 mmHg 77%
    05:00 +20°C° 0 mm 4 mps 743 mmHg 76%
    06:00 +20°C° 0 mm 4 mps 743 mmHg 75%
    07:00 +22°C° 0 mm 4 mps 743 mmHg 70%
    08:00 +24°C° 0 mm 3 mps 743 mmHg 65%
    09:00 +26°C° 0 mm 3 mps 743 mmHg 59%
    10:00 +27°C° 0 mm 2 mps 742 mmHg 53%
    11:00 +29°C° 0 mm 2 mps 742 mmHg 48%
    12:00 +31°C° 0 mm 1 mps 742 mmHg 42%
    13:00 +32°C° 0 mm 2 mps 742 mmHg 38%
    14:00 +35°C° 0 mm 2 mps 741 mmHg 35%
    15:00 +36°C° 0 mm 3 mps 741 mmHg 31%
    16:00 +35°C° 0.1 mm 4 mps 741 mmHg 34%
    17:00 +35°C° 0.1 mm 5 mps 741 mmHg 36%
    18:00 +34°C° 0.1 mm 6 mps 741 mmHg 39%
    19:00 +32°C° 0.9 mm 6 mps 741 mmHg 48%
    20:00 +28°C° 0.9 mm 6 mps 742 mmHg 56%
    21:00 +26°C° 0.9 mm 6 mps 742 mmHg 65%
    22:00 +26°C° 0.3 mm 6 mps 742 mmHg 67%
    23:00 +24°C° 0.3 mm 6 mps 742 mmHg 69%
    Show more